Regional Weather Roundup
Issued by NWS Charleston, SC

Current Version | Previous Version | Graphics & Text | Print | Product List | Glossary On
Versions: 1 2 3 4 5 6 7 8 9 10 11 12 13 14 15 16 17 18 19 20 21 22 23 24 25 26 27 28 29 30 31 32 33 34 35 36 37 38 39 40 41 42 43 44 45 46 47 48 49 50
000
ASUS42 KCHS 301927
RWRCHS

REGIONAL WEATHER ROUNDUP
NATIONAL WEATHER SERVICE CHARLESTON SC
300 PM EDT THU JUL 30 2015

NOTE: "FAIR" INDICATES FEW OR NO CLOUDS BELOW 12,000 FEET WITH NO
SIGNIFICANT WEATHER AND/OR OBSTRUCTIONS TO VISIBILITY.

NOT ALL STATIONS ARE QUALITY CONTROLLED BY THE NATIONAL
WEATHER SERVICE. USE DATA WITH CAUTION...ESPECIALLY
DEWPOINT OBSERVATIONS.

SCZ027-030-031-034>040-042>050-302000-
...SOUTHEAST SOUTH CAROLINA...

CITY           SKY/WX    TMP DP  RH WIND       PRES   REMARKS
N CHARLESTON   MOSUNNY   93  72  50 N6        29.90F HX 101
WATERFRONT PRK   N/A     86  79  79 SE7       29.90F HX  99
MOUNT PLEASANT   N/A     91  77  62 S6        29.90F HX 105
JOHNS ISLAND   FAIR      90  79  70 S6        29.90F HX 105
PINOPOLIS      NOT AVBL
MONCKS CORNER  FAIR      97  70  41 N3        29.89F HX 103
SUMMERVILLE    FAIR      97  72  44 S5        29.90F HX 105
BEAUFORT MCAS  MOSUNNY   94  70  45 CALM      29.91F HX 100
BEAUFORT ARPT  FAIR      90  79  70 S7        29.91F HX 105
HILTON HEAD IS MOSUNNY   90  79  70 S5        29.94F HX 105
WALTERBORO     PTCLDY    97  66  36 N7        29.90F HX 100
ALLENDALE      FAIR      95  70  43 VRB6      29.89F HX 101

...SOUTHERN MIDLANDS AND PEE DEE...

CITY           SKY/WX    TMP DP  RH WIND       PRES   REMARKS
GEORGETOWN     NOT AVBL
KINGSTREE      NOT AVBL
ORANGEBURG     MOSUNNY   98  67  36 VRB5      29.90F HX 102
BARNWELL       FAIR      99  72  41 SW6       29.90F HX 107
AIKEN          LGT RAIN  91  66  43 CALM      29.94F HX  94
MANNING        FAIR      95  64  36 S3        29.89F HX  97
COLUMBIA       LGT RAIN  84  76  76 NE13      29.90F HX  93
SUMTER         LGT RAIN  93  72  49 NW16      29.87F HX 100
FLORENCE       SUNNY     98  70  40 N7        29.89F HX 105
MYRTLE BEACH   MOSUNNY   91  72  52 SE8       29.91F HX  98
N MYRTLE BEACH SUNNY     91  72  53 VRB3      29.89F HX  98

$$

GAZ063-065-086>088-099>101-113>116-118-119-134>141-150-302000-
...SOUTHEAST GEORGIA...

CITY           SKY/WX    TMP DP  RH WIND       PRES   REMARKS
SAVANNAH ARPT  PTSUNNY   92  72  51 S6        29.92F HX  99
HUNTER AAF     SUNNY     91  80  68 S8        29.90F HX 108
FORT STEWART   PTSUNNY   94  72  48 SE7       29.90F HX 102
STATESBORO     SUNNY     96  75  50 W7        29.90F HX 107
SYLVANIA       CLEAR     97  72  44 SW3       29.91F HX 105
CLAXTON        FAIR      95  75  52 W6        29.91F HX 107

...CSRA...CENTRAL AND FAR SOUTHEAST GEORGIA...

CITY           SKY/WX    TMP DP  RH WIND       PRES   REMARKS
THOMSON        SUNNY     97  74  47 NW5       29.95F HX 108
AUGUSTA-BUSH   MOSUNNY   94  75  54 SE8       29.90F HX 105
AUGUSTA-DANIEL SUNNY     96  71  44 VRB5      29.92F HX 103
SWAINSBORO     FAIR      95  75  52 SE10      29.92F HX 107
VIDALIA        SUNNY     91  72  52 SE5       29.93F HX  98
EASTMAN        FAIR      96  75  51 S3        29.94F HX 108
HAZLEHURST     FAIR      93  78  60 SW5       29.92F HX 107
ALMA           MOSUNNY   90  77  65 CALM      29.94F HX 103
WAYCROSS       MOSUNNY   94  81  65 SW6       29.93F HX 114
JESUP          FAIR      97  75  49 S7        29.92F HX 109
BAXLEY         FAIR      91  77  62 SW5       29.92F HX 105
BRUNSWICK      SUNNY     90  75  62 S3        29.94F HX 100
SAINT SIMONS   SUNNY     87  76  69 SE12      29.94F HX  97

$$

SCZ027-028-034-036>038-045-046-048>050-GAZ119-141-302000-
...LAKE AND SUPPLEMENTAL COASTAL OBSERVATIONS...

STATION/POSITION TIME  TEMP    WIND        PRES    WAVE   SWELL
                       AIR SEA DIR/SP/G            HT/PER HT/PER/DIR
                 (UTC) (F)     (DEG/KT/KT) (MB)    (FT/S) (FT/S/D)
UPR LAKE MARION  NOT AVBL
WINYAH BAY       1845   87     110/  3     1012.0F
LAKE MURRAY      1800   90     200/  3/  3 1013.2F
ACE BASIN NERRS  1800   92        CALM     1014.0F
FORT PULASKI     1900   87 87  150/  5/  8 1013.9F
SAPELO ISLAND    1900   91     160/  8     1014.0F

$$

ANZ835-935-AMZ111-154-330-350-352-354-370-450-454-472-302000-
...C-MAN AND BUOY OBSERVATIONS...

STATION/POSITION TIME  TEMP    WIND        PRES    WAVE   SWELL
                       AIR SEA DIR/SP/G            HT/PER HT/PER/DIR
                 (UTC) (F)     (DEG/KT/KT) (MB)    (FT/S) (FT/S/D)
BUOY 41004       1850   82 85  360/  8/ 10 1012.9F   3/ 8   3/ 8
BUOY 41008       1850   83 86  140/  4/  6 1014.2F   2/ 7   2/110/ 7
FOLLY BEACH CMAN 1900   85     180/  6/  7 1013.1F
CAPERS NEARSHORE 1808   83     150/  6/  8 1013.8F
FRIPP NEARSHORE  1800   85     150/  8/  8 1014.0F


STATION/POSITION TIME  TEMP    WIND        PRES    WAVE   SWELL
                       AIR SEA DIR/SP/G            HT/PER HT/PER/DIR
                 (UTC) (F)     (DEG/KT/KT) (MB)    (FT/S) (FT/S/D)
5E ST. MARYS GA  1821      85                N/A     2/10
FRYING PAN BUOY  1850   83 85   30/ 10/ 12 1012.9F   3/ 8   3/160/ 8
BUOY 41025       1850   84 86  180/ 19/ 25 1013.8F   5/ 5   2/ 90/10
CAPE LOOKOUT NC  1900   83     170/ 12/ 13 1012.9F
BUOY 41002       1850   82 81  190/ 19/ 23 1014.4F   9/ 8
BUOY 41010       1820   82 84  240/ 14/ 16 1015.3F
ST AUGUSTINE FL  1900   81 85   60/  9/  9 1014.5F


$$


USA.gov is the U.S. government's official web portal to all federal, state and local government web resources and services.